Torna al catalogo

TDRS 13

AttivoComunicazioniGEO
NORAD 42915·PAYLOAD·🇺🇸 United States

Lanciato Aug 18, 2017 da Cape Canaveral Space Force Station

Loading…

TLE

AggiornatoSource: Space-Track

Epoca: Sep 14, 2026, 08:37 UTC

1 42915U 17047A   26257.35905172 -.00000106  00000-0  00000-0 0  9992
2 42915   3.4834   4.8632 0013652 121.3822 344.9636  1.00271882 33240

Traccia TDRS 13 in tempo reale con AllMySat

Download on the App Store